"startDT [UTC]","vpos","CH4 [ppm]","stdev(CH4) [ppm]","CO2 [ppm]","stdev(CO2) [ppm]","H2O_reported [%]","stdev(H2O_reported)","CavityPressure [torr]","CavityTemp [C]","OutletValve","CH4_dry [ppm]","CO2_dry [ppm]","DasTemp [C]","EtalonTemp [C]","WarmBoxTemp [C]","MPVPosition","T_ECpre [C]","T_EC1 [C]","T_EC2 [C]","p_inlet [hPa]","p_in [hPa]","p_out [hPa]","T_inlet [C]","RH_inlet [%]","dwpt_inlet [C]","T_vent [C]","RH_vent [%]","dwpt_vent [C]","flow_vent [l min-1]","flow_inlet [l min-1]","dwpt_sample [C]","T_room [C]"
2015-06-07 00:00:00,0.0,1.88474,0.00052,400.716,0.035,0.8463,0.0088,139.994,45.000,34287.46419,1.90087,404.902,38.070,45.066,45.000,0.00,0.10,-272.71,-272.77,-6,962,-11,28.5,16.4,0.5,28.1,16.5,0.4,5.73,1.91,1.1,32.2
2015-06-07 00:01:00,0.0,1.88372,0.00043,400.568,0.064,0.8848,0.0133,139.969,45.000,33914.91827,1.90058,404.952,38.091,45.066,45.000,0.00,0.10,-272.71,-272.78,-5,905,-11,28.5,17.1,1.1,28.1,17.2,0.9,5.73,1.70,1.1,32.1
2015-06-07 00:02:00,0.0,1.88349,0.00050,400.544,0.076,0.8951,0.0134,139.999,45.000,33802.41094,1.90061,404.981,38.121,45.066,45.000,0.00,0.10,-272.70,-272.78,-5,888,-11,28.5,17.4,1.3,28.1,17.5,1.2,5.73,1.76,1.1,32.2
2015-06-07 00:03:00,0.0,1.88393,0.00054,400.625,0.040,0.8806,0.0067,139.997,45.000,33779.58699,1.90072,404.987,38.125,45.066,45.000,0.00,0.10,-272.71,-272.77,-4,886,-11,28.5,17.1,1.1,28.1,17.6,1.3,5.73,1.80,1.1,32.1
2015-06-07 00:04:00,0.0,1.88344,0.00054,400.539,0.071,0.9033,0.0145,139.996,45.000,33759.23170,1.90063,405.017,38.125,45.066,45.000,0.00,0.10,-272.71,-272.78,-5,884,-11,28.5,17.6,1.5,28.1,17.5,1.2,5.73,1.64,1.1,32.1
2015-06-07 00:05:00,0.0,1.88390,0.00047,400.638,0.086,0.8780,0.0140,140.000,45.000,33747.22124,1.90064,404.990,38.125,45.066,45.000,0.00,0.10,-272.71,-272.77,-4,883,-11,28.5,16.9,1.0,28.1,17.7,1.3,5.73,1.84,1.1,32.1
2015-06-07 00:06:00,0.0,1.88403,0.00040,400.671,0.068,0.8698,0.0140,140.000,45.000,33736.75746,1.90062,404.979,38.127,45.066,45.000,0.00,0.10,-272.70,-272.76,-5,882,-11,28.5,16.7,0.8,28.2,17.6,1.3,5.73,1.72,1.1,32.1
2015-06-07 00:07:00,0.0,1.88357,0.00024,400.648,0.056,0.8864,0.0086,139.997,45.000,33725.61830,1.90047,405.040,38.127,45.066,45.000,0.00,0.10,-272.71,-272.77,-4,881,-11,28.5,17.2,1.3,28.2,17.3,1.1,5.73,1.69,1.1,32.2
2015-06-07 00:08:00,0.0,1.88286,0.00049,400.513,0.052,0.9165,0.0139,139.998,45.000,33712.97747,1.90036,405.058,38.161,45.066,45.000,0.00,0.10,-272.72,-272.77,-5,880,-11,28.5,17.9,1.8,28.2,17.3,1.0,5.73,1.84,1.1,32.2
2015-06-07 00:09:00,0.0,1.88242,0.00055,400.422,0.080,0.9440,0.0199,139.999,45.000,33702.87942,1.90044,405.105,38.169,45.066,45.000,0.00,0.10,-272.70,-272.77,-4,879,-11,28.5,18.5,2.2,28.2,17.6,1.3,5.73,1.65,1.2,32.2
2015-06-07 00:10:00,0.0,1.88325,0.00062,400.578,0.115,0.9021,0.0212,140.000,45.000,33696.18288,1.90045,405.055,38.165,45.066,45.000,0.00,0.10,-272.71,-272.77,-5,879,-11,28.5,17.2,1.2,28.2,18.1,1.7,5.73,1.80,1.2,32.2
2015-06-07 00:11:00,0.0,1.88361,0.00042,400.654,0.067,0.8950,0.0126,140.000,45.000,33689.21917,1.90067,405.089,38.183,45.066,45.000,0.00,0.10,-272.71,-272.77,-4,878,-11,28.5,17.5,1.5,28.2,18.3,1.8,5.73,1.75,1.2,32.2
2015-06-07 00:12:00,0.0,1.88252,0.00039,400.479,0.036,0.9326,0.0058,139.995,45.000,33680.99589,1.90033,405.107,38.186,45.066,45.000,0.00,0.10,-272.71,-272.77,-5,877,-11,28.5,18.0,1.9,28.2,17.9,1.5,5.73,1.66,1.2,32.2
2015-06-07 00:13:00,0.0,1.88310,0.00042,400.615,0.056,0.9052,0.0077,140.003,45.000,33675.97916,1.90036,405.103,38.186,45.066,45.000,0.00,0.10,-272.70,-272.77,-5,876,-11,28.5,17.6,1.6,28.2,17.9,1.6,5.73,1.84,1.2,32.2
2015-06-07 00:14:00,0.0,1.88356,0.00064,400.661,0.105,0.8913,0.0218,139.999,45.000,33667.90749,1.90054,405.083,38.185,45.066,45.000,0.00,0.10,-272.70,-272.77,-4,875,-11,28.5,17.0,1.1,28.2,18.1,1.7,5.73,1.65,1.2,32.3
2015-06-07 00:15:00,0.0,1.88389,0.00029,400.779,0.058,0.8688,0.0082,139.999,45.000,33664.96201,1.90045,405.085,38.183,45.066,45.000,0.00,0.10,-272.71,-272.77,-5,875,-11,28.5,16.5,0.7,28.2,18.0,1.6,5.73,1.77,1.2,32.2
2015-06-07 00:16:00,0.0,1.88411,0.00038,400.863,0.049,0.8497,0.0074,139.997,45.000,33666.79487,1.90029,405.072,38.179,45.066,45.000,0.00,0.10,-272.70,-272.77,-4,876,-11,28.5,16.3,0.5,28.2,17.6,1.3,5.73,1.76,1.2,32.3
2015-06-07 00:17:00,0.0,1.88385,0.00033,400.802,0.048,0.8692,0.0110,139.998,45.000,33661.16473,1.90042,405.109,38.180,45.066,45.000,0.00,0.10,-272.70,-272.77,-5,875,-11,28.6,16.8,0.9,28.2,17.2,1.0,5.73,1.64,1.2,32.3
2015-06-07 00:18:00,0.0,1.88343,0.00064,400.703,0.091,0.8964,0.0204,139.999,45.000,33658.78501,1.90054,405.145,38.184,45.066,45.000,0.00,0.10,-272.71,-272.78,-4,875,-11,28.6,17.5,1.5,28.2,17.0,0.9,5.73,1.85,1.2,32.3
2015-06-07 00:19:00,0.0,1.88327,0.00048,400.671,0.107,0.9008,0.0202,140.003,45.000,33654.90346,1.90045,405.141,38.169,45.066,45.000,0.00,0.10,-272.71,-272.77,-5,875,-11,28.6,17.2,1.3,28.2,17.2,1.0,5.73,1.67,1.2,32.3
2015-06-07 00:20:00,0.0,1.88312,0.00044,400.733,0.053,0.8925,0.0090,139.997,45.000,33648.63567,1.90014,405.158,38.183,45.066,45.000,0.00,0.10,-272.70,-272.77,-4,874,-11,28.6,17.2,1.3,28.3,17.5,1.3,5.73,1.75,1.2,32.3
2015-06-07 00:21:00,0.0,1.88344,0.00051,400.810,0.056,0.8754,0.0091,139.999,45.000,33645.73419,1.90012,405.150,38.186,45.066,45.000,0.00,0.10,-272.71,-272.77,-5,873,-11,28.6,16.7,0.9,28.2,17.6,1.4,5.73,1.81,1.3,32.4
2015-06-07 00:22:00,0.0,1.88373,0.00044,400.838,0.033,0.8716,0.0062,139.999,45.000,33643.79770,1.90033,405.158,38.188,45.066,45.000,0.00,0.10,-272.70,-272.77,-5,873,-11,28.6,16.8,0.9,28.2,17.6,1.3,5.73,1.64,1.3,32.3
2015-06-07 00:23:00,0.0,1.88357,0.00039,400.813,0.046,0.8803,0.0123,140.000,45.000,33638.00066,1.90037,405.175,38.187,45.066,45.000,0.00,0.10,-272.70,-272.77,-4,873,-11,28.6,17.0,1.1,28.3,17.4,1.2,5.73,1.83,1.3,32.3
2015-06-07 00:24:00,0.0,1.88353,0.00047,400.858,0.064,0.8766,0.0119,139.999,45.000,33638.87981,1.90024,405.206,38.187,45.066,45.000,0.00,0.10,-272.71,-272.77,-5,872,-11,28.6,16.8,1.0,28.3,17.3,1.1,5.73,1.69,1.3,32.3
2015-06-07 00:25:00,0.0,1.88374,0.00038,400.869,0.052,0.8751,0.0101,140.002,45.000,33640.25629,1.90041,405.204,38.188,45.066,45.000,0.00,0.10,-272.71,-272.78,-4,873,-11,28.6,16.9,1.1,28.3,17.3,1.1,5.73,1.72,1.3,32.3
2015-06-07 00:26:00,0.0,1.88259,0.00053,400.628,0.098,0.9290,0.0207,139.996,45.000,33634.83316,1.90032,405.238,38.188,45.066,45.000,0.00,0.10,-272.70,-272.76,-5,872,-11,28.6,18.1,2.0,28.3,17.3,1.1,5.73,1.81,1.3,32.3
2015-06-07 00:27:00,0.0,1.88316,0.00053,400.754,0.093,0.9047,0.0193,139.997,45.000,33634.83921,1.90042,405.243,38.188,45.066,45.000,0.00,0.10,-272.71,-272.78,-4,872,-11,28.6,17.3,1.4,28.3,17.3,1.1,5.73,1.64,1.3,32.3
2015-06-07 00:28:00,0.0,1.88259,0.00065,400.647,0.111,0.9316,0.0257,140.000,45.000,33636.29310,1.90035,405.270,38.189,45.066,45.000,0.00,0.10,-272.70,-272.78,-5,873,-11,28.6,18.1,2.0,28.3,17.8,1.5,5.73,1.83,1.3,32.2
2015-06-07 00:29:00,0.0,1.88271,0.00043,400.729,0.082,0.9249,0.0155,140.000,45.000,33630.93023,1.90035,405.321,38.189,45.066,45.000,0.00,0.10,-272.70,-272.77,-4,871,-11,28.6,17.7,1.7,28.3,17.9,1.6,5.73,1.70,1.3,32.2
2015-06-07 00:30:00,0.0,1.88284,0.00062,400.828,0.094,0.9034,0.0233,139.999,45.000,33630.50057,1.90007,405.309,38.190,45.066,45.000,0.00,0.10,-272.70,-272.77,-5,871,-11,28.6,17.5,1.6,28.3,18.1,1.8,5.73,1.72,1.3,32.2
2015-06-07 00:31:00,0.0,1.88260,0.00039,400.766,0.042,0.9236,0.0075,140.003,45.000,33627.15859,1.90021,405.349,38.192,45.066,45.000,0.00,0.10,-272.71,-272.78,-4,871,-11,28.6,18.0,2.0,28.3,18.1,1.8,5.73,1.81,1.3,32.2
2015-06-07 00:32:00,0.0,1.88217,0.00034,400.651,0.066,0.9527,0.0094,140.000,45.000,33621.90839,1.90036,405.385,38.188,45.066,45.000,0.00,0.10,-272.70,-272.78,-5,870,-11,28.6,18.3,2.2,28.3,18.0,1.7,5.73,1.63,1.3,32.3
2015-06-07 00:33:00,0.0,1.88286,0.00044,400.849,0.099,0.9035,0.0156,139.998,45.000,33625.65271,1.90010,405.334,38.191,45.066,45.000,0.00,0.10,-272.70,-272.77,-5,871,-11,28.6,17.3,1.4,28.3,18.1,1.8,5.73,1.83,1.4,32.2
2015-06-07 00:34:00,0.0,1.88314,0.00039,400.897,0.054,0.8998,0.0091,139.999,45.000,33619.96517,1.90028,405.363,38.191,45.066,45.000,0.00,0.10,-272.71,-272.77,-5,870,-11,28.6,17.3,1.4,28.3,18.4,2.0,5.73,1.70,1.4,32.3
2015-06-07 00:35:00,0.0,1.88335,0.00043,400.960,0.078,0.8827,0.0238,139.999,45.000,33621.57142,1.90018,405.340,38.206,45.066,45.000,0.00,0.10,-272.71,-272.77,-5,870,-11,28.6,16.6,0.9,28.3,18.1,1.8,5.73,1.69,1.4,32.3
2015-06-07 00:36:00,0.0,1.88315,0.00050,400.954,0.124,0.8885,0.0265,139.998,45.000,33618.20165,1.90008,405.359,38.229,45.066,45.000,0.00,0.10,-272.70,-272.77,-4,870,-11,28.6,17.2,1.4,28.3,17.9,1.6,5.73,1.84,1.4,32.3
2015-06-07 00:37:00,0.0,1.88308,0.00045,400.926,0.072,0.8872,0.0135,139.997,45.000,33616.46694,1.89999,405.327,38.225,45.066,45.000,0.00,0.10,-272.71,-272.77,-5,869,-11,28.6,17.0,1.2,28.3,17.6,1.4,5.73,1.63,1.4,32.3
2015-06-07 00:38:00,0.0,1.88271,0.00037,400.816,0.094,0.9192,0.0180,139.997,45.000,33614.16893,1.90025,405.378,38.238,45.066,45.000,0.00,0.10,-272.71,-272.77,-4,869,-11,28.6,17.9,1.9,28.3,17.5,1.3,5.73,1.79,1.4,32.3
2015-06-07 00:39:00,0.0,1.88238,0.00043,400.800,0.097,0.9299,0.0136,139.997,45.000,33610.93650,1.90012,405.416,38.238,45.066,45.000,0.00,0.10,-272.71,-272.77,-5,869,-11,28.7,17.8,1.8,28.3,17.5,1.3,5.73,1.72,1.4,32.3
2015-06-07 00:40:00,0.0,1.88249,0.00029,400.819,0.041,0.9226,0.0101,140.001,45.000,33611.92183,1.90009,405.402,38.244,45.066,45.000,0.00,0.10,-272.70,-272.77,-4,869,-11,28.6,17.8,1.8,28.3,17.8,1.5,5.73,1.69,1.4,32.3
2015-06-07 00:41:00,0.0,1.88271,0.00057,400.855,0.066,0.9133,0.0155,140.002,45.000,33610.33178,1.90013,405.391,38.249,45.066,45.000,0.00,0.10,-272.71,-272.77,-5,868,-11,28.6,17.5,1.6,28.3,18.0,1.7,5.73,1.82,1.4,32.3
2015-06-07 00:42:00,0.0,1.88309,0.00047,400.927,0.049,0.8999,0.0091,140.000,45.000,33606.71876,1.90026,405.392,38.251,45.066,45.000,0.00,0.10,-272.70,-272.77,-5,868,-11,28.7,17.2,1.3,28.3,18.0,1.7,5.73,1.63,1.4,32.3
2015-06-07 00:43:00,0.0,1.88327,0.00037,400.995,0.055,0.8935,0.0116,140.002,45.000,33603.86329,1.90030,405.425,38.251,45.066,45.000,0.00,0.10,-272.70,-272.77,-5,868,-11,28.7,17.2,1.3,28.3,18.0,1.7,5.73,1.79,1.4,32.3
2015-06-07 00:44:00,0.0,1.88318,0.00036,400.987,0.046,0.8989,0.0074,140.001,45.000,33602.54726,1.90033,405.448,38.274,45.066,45.000,0.00,0.10,-272.70,-272.77,-5,867,-11,28.7,17.3,1.5,28.3,17.8,1.6,5.73,1.73,1.4,32.3
2015-06-07 00:45:00,0.0,1.88239,0.00054,400.862,0.042,0.9249,0.0107,139.997,45.000,33599.09359,1.90003,405.455,38.289,45.066,45.000,0.00,0.10,-272.71,-272.77,-5,867,-11,28.7,17.8,1.8,28.4,17.7,1.5,5.73,1.69,1.5,32.3
2015-06-07 00:46:00,0.0,1.88293,0.00054,400.950,0.081,0.9008,0.0196,140.002,45.000,33599.10383,1.90013,405.423,38.295,45.066,45.000,0.00,0.10,-272.71,-272.77,-5,867,-11,28.7,17.0,1.2,28.4,17.7,1.5,5.73,1.82,1.5,32.3
2015-06-07 00:47:00,0.0,1.88383,0.00037,401.159,0.038,0.8605,0.0063,139.994,45.000,33596.37352,1.90020,405.425,38.299,45.066,45.000,0.00,0.10,-272.70,-272.77,-4,867,-11,28.7,16.5,0.8,28.4,17.8,1.6,5.73,1.63,1.5,32.4
2015-06-07 00:48:00,0.0,1.88364,0.00032,401.083,0.032,0.8805,0.0044,139.996,45.000,33591.96524,1.90042,405.451,38.285,45.066,45.000,0.00,0.10,-272.71,-272.77,-5,866,-11,28.7,16.9,1.1,28.4,17.7,1.6,5.73,1.79,1.5,32.3
2015-06-07 00:49:00,0.0,1.88400,0.00039,401.076,0.059,0.8838,0.0095,139.998,45.000,33589.75945,1.90084,405.459,38.297,45.066,45.000,0.00,0.10,-272.70,-272.77,-4,866,-11,28.7,16.8,1.1,28.4,17.4,1.3,5.73,1.76,1.5,32.3
2015-06-07 00:50:00,0.0,1.88316,0.00049,401.028,0.072,0.8977,0.0124,139.999,45.000,33587.32270,1.90033,405.482,38.313,45.066,45.000,0.00,0.10,-272.70,-272.77,-5,866,-11,28.7,17.3,1.5,28.4,17.3,1.2,5.73,1.65,1.5,32.3
2015-06-07 00:51:00,0.0,1.88331,0.00036,401.034,0.070,0.8892,0.0153,140.001,45.000,33589.85174,1.90023,405.449,38.311,45.066,45.000,0.00,0.10,-272.71,-272.77,-4,865,-11,28.7,16.8,1.1,28.4,17.3,1.2,5.73,1.85,1.5,32.3
2015-06-07 00:52:00,0.0,1.88364,0.00048,401.107,0.049,0.8741,0.0113,140.000,45.000,33584.92093,1.90032,405.442,38.313,45.066,45.000,0.00,0.10,-272.70,-272.77,-5,865,-11,28.7,16.7,1.0,28.4,17.4,1.3,5.73,1.66,1.5,32.3
2015-06-07 00:53:00,0.0,1.88340,0.00042,401.056,0.050,0.8900,0.0107,139.998,45.000,33586.56006,1.90037,405.472,38.310,45.066,45.000,0.00,0.10,-272.70,-272.76,-4,865,-11,28.7,16.9,1.2,28.4,17.4,1.3,5.73,1.75,1.5,32.3
2015-06-07 00:54:00,0.0,1.88296,0.00056,401.021,0.052,0.9057,0.0142,139.998,45.000,33579.79538,1.90024,405.514,38.306,45.066,45.000,0.00,0.10,-272.70,-272.77,-5,863,-11,28.7,17.5,1.6,28.4,17.3,1.2,5.73,1.77,1.5,32.3
2015-06-07 00:55:00,0.0,1.88311,0.00050,401.041,0.058,0.9000,0.0110,139.996,45.000,33580.00427,1.90025,405.511,38.298,45.066,45.000,0.00,0.10,-272.70,-272.78,-5,864,-11,28.7,17.1,1.4,28.4,17.3,1.2,5.73,1.64,1.5,32.3
2015-06-07 00:56:00,0.0,1.88262,0.00046,400.966,0.068,0.9178,0.0137,139.997,45.000,33574.82910,1.90015,405.522,38.273,45.066,45.000,0.00,0.10,-272.70,-272.77,-5,864,-11,28.7,17.6,1.7,28.4,17.4,1.3,5.73,1.82,1.5,32.3
2015-06-07 00:57:00,0.0,1.88306,0.00044,401.058,0.061,0.9021,0.0140,140.004,45.000,33575.02437,1.90026,405.538,38.277,45.066,45.000,0.00,0.10,-272.70,-272.77,-5,863,-11,28.7,17.0,1.2,28.4,17.5,1.4,5.73,1.66,1.5,32.3
2015-06-07 00:58:00,0.0,1.88379,0.00049,401.205,0.054,0.8671,0.0140,139.997,45.000,33570.83008,1.90031,405.505,38.296,45.066,45.001,0.00,0.10,-272.71,-272.78,-4,863,-11,28.8,16.6,0.9,28.4,17.6,1.5,5.73,1.75,1.5,32.3
2015-06-07 00:59:00,0.0,1.88334,0.00060,401.105,0.101,0.8950,0.0243,139.997,45.000,33571.88473,1.90039,405.546,38.305,45.066,45.000,0.00,0.10,-272.71,-272.77,-5,863,-11,28.7,17.1,1.3,28.4,17.6,1.5,5.73,1.79,1.6,32.3
2015-06-07 01:00:00,0.0,1.88299,0.00053,401.091,0.057,0.9053,0.0145,139.996,45.000,33565.55698,1.90028,405.583,38.302,45.066,45.000,0.00,0.10,-272.70,-272.77,-4,862,-11,28.8,17.5,1.7,28.4,17.4,1.3,5.73,1.64,1.6,32.3
2015-06-07 01:01:00,0.0,1.88236,0.00056,401.002,0.040,0.9309,0.0088,140.002,45.000,33563.15565,1.90016,405.627,38.310,45.066,45.000,0.00,0.10,-272.71,-272.78,-5,861,-11,28.8,17.8,1.9,28.4,17.3,1.3,5.73,1.85,1.6,32.3
2015-06-07 01:02:00,0.0,1.88259,0.00037,401.058,0.071,0.9201,0.0141,140.004,45.000,33562.75515,1.90010,405.627,38.309,45.066,45.000,0.00,0.10,-272.71,-272.77,-4,862,-11,28.8,17.6,1.8,28.4,17.5,1.4,5.73,1.68,1.6,32.3
2015-06-07 01:03:00,0.0,1.88251,0.00045,401.089,0.078,0.9204,0.0146,139.999,45.000,33558.75607,1.90006,405.662,38.312,45.066,45.000,0.00,0.10,-272.70,-272.77,-5,861,-11,28.8,17.5,1.7,28.4,17.7,1.6,5.73,1.74,1.6,32.4
2015-06-07 01:04:00,0.0,1.88260,0.00048,401.106,0.054,0.9243,0.0099,140.000,45.000,33553.58313,1.90023,405.698,38.313,45.066,45.000,0.00,0.10,-272.71,-272.77,-5,860,-11,28.8,17.7,1.8,28.4,17.8,1.7,5.73,1.80,1.6,32.4
2015-06-07 01:05:00,0.0,1.88274,0.00034,401.135,0.077,0.9219,0.0131,140.004,45.000,33550.72759,1.90035,405.715,38.313,45.066,45.000,0.00,0.10,-272.71,-272.77,-5,860,-11,28.8,17.5,1.7,28.5,17.9,1.7,5.73,1.62,1.6,32.4
2015-06-07 01:06:00,0.0,1.88284,0.00033,401.184,0.058,0.9118,0.0115,140.001,45.000,33546.49425,1.90023,405.714,38.317,45.066,45.000,0.00,0.10,-272.70,-272.77,-5,859,-11,28.8,17.4,1.6,28.5,17.9,1.8,5.73,1.82,1.6,32.4
2015-06-07 01:07:00,0.0,1.88267,0.00041,401.178,0.038,0.9147,0.0058,139.999,45.000,33553.85334,1.90011,405.720,38.332,45.066,45.000,0.00,0.10,-272.70,-272.77,-5,859,-11,28.8,17.5,1.7,28.5,17.9,1.8,5.73,1.69,1.6,32.4
2015-06-07 01:08:00,0.0,1.88267,0.00029,401.122,0.048,0.9283,0.0133,140.003,45.000,33546.81012,1.90038,405.734,38.343,45.066,45.000,0.00,0.10,-272.70,-272.77,-5,859,-11,28.8,18.0,2.1,28.5,17.8,1.7,5.73,1.70,1.6,32.3
2015-06-07 01:09:00,0.0,1.88180,0.00051,400.959,0.058,0.9690,0.0171,139.992,45.000,33543.89475,1.90033,405.781,38.357,45.066,45.000,0.00,0.10,-272.71,-272.77,-4,858,-11,28.8,18.5,2.5,28.5,17.8,1.7,5.73,1.80,1.6,32.4
2015-06-07 01:10:00,0.0,1.88139,0.00045,400.920,0.088,0.9758,0.0206,140.000,45.000,33535.98157,1.90002,405.772,38.371,45.066,45.000,0.00,0.10,-272.70,-272.77,-6,857,-11,28.8,18.8,2.7,28.5,17.9,1.7,5.73,1.64,1.6,32.4
2015-06-07 01:11:00,0.0,1.88233,0.00046,401.036,0.081,0.9473,0.0131,140.001,45.000,33536.79149,1.90043,405.748,38.374,45.066,45.000,0.00,0.10,-272.70,-272.77,-4,858,-11,28.8,18.0,2.1,28.5,18.2,2.0,5.73,1.82,1.6,32.5
2015-06-07 01:12:00,0.0,1.88216,0.00044,401.004,0.068,0.9514,0.0118,139.999,45.000,33532.50268,1.90032,405.736,38.373,45.066,45.000,0.00,0.10,-272.70,-272.77,-5,856,-11,28.8,18.1,2.2,28.5,18.4,2.2,5.73,1.68,1.6,32.5
2015-06-07 01:13:00,0.0,1.88216,0.00033,401.038,0.040,0.9467,0.0087,139.998,45.000,33531.56848,1.90023,405.743,38.375,45.066,45.000,0.00,0.10,-272.70,-272.77,-5,857,-11,28.8,18.1,2.2,28.5,18.6,2.3,5.73,1.71,1.7,32.5
2015-06-07 01:14:00,0.0,1.88196,0.00040,401.029,0.049,0.9459,0.0084,139.998,45.000,33526.60086,1.90003,405.732,38.376,45.066,45.000,0.00,0.10,-272.70,-272.77,-5,855,-11,28.8,18.1,2.2,28.5,18.5,2.2,5.73,1.82,1.7,32.5
2015-06-07 01:15:00,0.0,1.88221,0.00054,401.020,0.069,0.9493,0.0131,139.998,45.000,33525.21689,1.90035,405.740,38.397,45.066,45.000,0.00,0.10,-272.71,-272.77,-4,855,-11,28.8,18.1,2.2,28.5,18.5,2.2,5.73,1.62,1.7,32.5
2015-06-07 01:16:00,0.0,1.88213,0.00056,400.964,0.083,0.9659,0.0160,140.000,45.000,33519.08367,1.90056,405.767,38.383,45.066,45.000,0.00,0.10,-272.71,-272.77,-5,854,-11,28.8,18.5,2.5,28.5,18.4,2.2,5.73,1.81,1.7,32.4
2015-06-07 01:17:00,0.0,1.88241,0.00044,401.015,0.045,0.9551,0.0061,139.996,45.000,33511.91935,1.90066,405.764,38.382,45.066,45.000,0.00,0.10,-272.70,-272.77,-5,854,-11,28.8,18.3,2.3,28.5,18.4,2.2,5.73,1.68,1.7,32.4
2015-06-07 01:18:00,0.0,1.88174,0.00052,400.971,0.049,0.9691,0.0036,140.000,45.000,33511.79220,1.90026,405.792,38.380,45.066,45.000,0.00,0.10,-272.71,-272.77,-5,853,-11,28.8,18.5,2.5,28.5,18.5,2.2,5.73,1.70,1.7,32.5
2015-06-07 01:19:00,0.0,1.88206,0.00037,401.025,0.038,0.9528,0.0081,139.999,45.000,33506.90417,1.90023,405.765,38.388,45.066,45.000,0.00,0.10,-272.71,-272.76,-5,853,-11,28.8,18.0,2.2,28.5,18.5,2.3,5.73,1.81,1.7,32.5
2015-06-07 01:20:00,0.0,1.88245,0.00038,401.089,0.051,0.9397,0.0079,139.998,45.000,33500.73644,1.90039,405.759,38.400,45.066,45.000,0.00,0.10,-272.70,-272.76,-4,852,-11,28.8,17.9,2.1,28.5,18.6,2.3,5.73,1.62,1.7,32.5
2015-06-07 01:21:00,0.0,1.88206,0.00032,401.047,0.041,0.9514,0.0050,139.998,45.000,33495.68605,1.90023,405.778,38.394,45.066,45.000,0.00,0.10,-272.70,-272.77,-5,851,-11,28.8,18.1,2.2,28.5,18.6,2.3,5.73,1.82,1.7,32.5
2015-06-07 01:22:00,0.0,1.88243,0.00041,401.073,0.044,0.9435,0.0057,140.001,45.000,33497.33547,1.90043,405.764,38.400,45.066,45.000,0.00,0.10,-272.70,-272.77,-5,851,-11,28.8,18.0,2.1,28.5,18.5,2.3,5.73,1.69,1.7,32.5
2015-06-07 01:23:00,0.0,1.88264,0.00035,401.072,0.033,0.9440,0.0037,140.000,45.000,33485.72756,1.90064,405.766,38.418,45.066,45.000,0.00,0.10,-272.70,-272.77,-5,850,-11,28.8,17.9,2.0,28.5,18.4,2.2,5.73,1.67,2.1,32.5
2015-06-07 01:24:00,0.0,1.88229,0.00038,401.083,0.046,0.9397,0.0119,140.001,45.000,33484.39369,1.90025,405.755,38.423,45.066,45.000,0.00,0.10,-272.70,-272.77,-4,849,-11,28.9,17.9,2.1,28.5,18.4,2.2,5.73,1.82,2.5,32.4
2015-06-07 01:25:00,0.0,1.88248,0.00037,401.072,0.051,0.9435,0.0055,139.996,45.000,33480.35578,1.90047,405.761,38.426,45.066,45.000,0.00,0.10,-272.70,-272.77,-5,849,-11,28.8,18.0,2.1,28.5,18.4,2.2,5.73,1.62,2.4,32.4
2015-06-07 01:26:00,0.0,1.88271,0.00050,401.125,0.055,0.9321,0.0110,140.003,45.000,33480.40967,1.90049,405.759,38.438,45.066,45.000,0.00,0.10,-272.70,-272.77,-4,849,-11,28.9,17.6,1.8,28.5,18.3,2.1,5.73,1.81,2.3,32.4
2015-06-07 01:27:00,0.0,1.88331,0.00041,401.237,0.043,0.9162,0.0050,139.998,45.000,33467.70850,1.90080,405.789,38.438,45.066,45.000,0.00,0.10,-272.70,-272.77,-5,847,-12,28.9,17.4,1.7,28.6,18.3,2.1,5.73,1.71,2.3,32.5
2015-06-07 01:28:00,0.0,1.88261,0.00051,401.147,0.088,0.9445,0.0157,140.002,45.000,33464.21931,1.90066,405.841,38.443,45.066,45.000,0.00,0.10,-272.71,-272.77,-5,847,-11,28.9,18.1,2.3,28.6,18.3,2.1,5.73,1.67,2.3,32.5
2015-06-07 01:29:00,0.0,1.88263,0.00039,401.185,0.039,0.9455,0.0068,139.995,45.000,33454.44347,1.90068,405.889,38.469,45.066,45.000,0.00,0.10,-272.71,-272.77,-5,845,-11,28.9,18.0,2.1,28.6,18.1,2.0,5.73,1.82,2.2,32.5
2015-06-07 01:30:00,0.0,1.88244,0.00048,401.171,0.026,0.9502,0.0064,140.000,45.000,33453.20163,1.90060,405.897,38.496,45.066,45.000,0.00,0.10,-272.70,-272.77,-5,844,-11,28.9,18.1,2.2,28.6,18.0,2.0,5.73,1.62,2.2,32.5
2015-06-07 01:31:00,0.0,1.88250,0.00048,401.187,0.032,0.9441,0.0040,139.997,45.000,33447.88311,1.90053,405.883,38.494,45.066,45.000,0.00,0.10,-272.71,-272.77,-5,844,-11,28.9,17.9,2.2,28.6,18.1,2.0,5.73,1.80,2.2,32.5
2015-06-07 01:32:00,0.0,1.88218,0.00033,401.171,0.046,0.9592,0.0107,140.003,45.000,33447.71891,1.90050,405.942,38.482,45.066,45.000,0.00,0.10,-272.71,-272.77,-5,844,-12,28.9,18.3,2.5,28.6,18.2,2.1,5.73,1.70,2.2,32.5
2015-06-07 01:33:00,0.0,1.88230,0.00039,401.186,0.044,0.9597,0.0046,139.999,45.000,33429.64744,1.90059,405.961,38.487,45.065,45.000,0.00,0.10,-272.70,-272.77,-5,842,-11,28.9,18.2,2.4,28.6,18.3,2.1,5.73,1.70,2.1,32.5
2015-06-07 01:34:00,0.0,1.88269,0.00039,401.240,0.040,0.9504,0.0082,139.999,45.000,33415.82899,1.90086,405.966,38.494,45.066,45.000,0.00,0.10,-272.70,-272.77,-5,840,-12,28.9,18.2,2.3,28.6,18.3,2.2,5.73,1.80,2.1,32.5
2015-06-07 01:35:00,0.0,1.88202,0.00046,401.174,0.051,0.9729,0.0082,139.997,45.000,33403.28130,1.90065,406.017,38.500,45.066,45.000,0.00,0.10,-272.71,-272.77,-4,838,-11,28.9,18.5,2.6,28.6,18.4,2.2,5.73,1.63,2.1,32.5
2015-06-07 01:36:00,0.0,1.88190,0.00047,401.190,0.062,0.9638,0.0108,140.002,45.000,33392.19440,1.90030,405.985,38.500,45.066,45.000,0.00,0.10,-272.70,-272.77,-6,836,-12,28.9,18.3,2.5,28.6,18.4,2.2,5.73,1.82,2.1,32.5
2015-06-07 01:37:00,0.0,1.88179,0.00204,401.198,0.103,0.9565,0.0176,139.935,45.000,32988.98511,1.90001,405.957,38.500,45.066,45.000,0.00,0.10,-272.69,-272.77,-4,774,-12,28.9,17.9,2.1,28.6,18.4,2.3,5.73,1.62,2.1,32.5
2015-06-07 01:38:00,0.0,1.88216,0.00032,401.219,0.082,0.9820,0.0209,139.997,45.000,32272.50667,1.90094,406.107,38.500,45.066,45.000,0.00,0.10,-272.71,-272.77,-5,659,-12,28.9,18.9,2.9,28.6,18.5,2.3,5.73,1.74,2.1,32.5
2015-06-07 01:39:00,0.0,1.88130,0.00053,401.029,0.083,1.0191,0.0218,140.001,45.000,32248.07936,1.90080,406.112,38.500,45.066,45.000,0.00,0.10,-272.71,-272.77,-4,659,-12,28.9,19.2,3.1,28.6,18.5,2.3,5.73,1.76,2.1,32.5
2015-06-07 01:40:00,0.0,1.88224,0.00076,401.216,0.093,0.9588,0.0212,140.000,45.000,32230.71333,1.90053,405.989,38.500,45.066,45.000,0.00,0.10,-272.70,-272.77,-4,659,-12,29.0,18.0,2.2,28.6,18.5,2.3,5.73,1.75,2.1,32.5
2015-06-07 01:41:00,0.0,1.88198,0.00051,401.180,0.087,0.9733,0.0193,139.997,45.000,32213.52254,1.90058,406.026,38.518,45.066,45.000,0.00,0.10,-272.70,-272.77,-4,659,-12,29.0,18.3,2.4,28.6,18.5,2.3,5.73,1.74,2.0,32.5
2015-06-07 01:42:00,0.0,1.88264,0.00044,401.318,0.047,0.9373,0.0087,140.000,45.000,32202.73889,1.90054,405.980,38.544,45.066,45.000,0.00,0.10,-272.71,-272.77,-4,659,-12,29.0,17.6,2.0,28.6,18.5,2.3,5.73,1.72,2.0,32.5
2015-06-07 01:43:00,0.0,1.88262,0.00044,401.290,0.062,0.9357,0.0098,140.000,45.000,32190.46685,1.90052,405.942,38.541,45.066,45.000,0.00,0.10,-272.70,-272.77,-5,659,-12,29.0,17.8,2.1,28.6,18.5,2.3,5.73,1.68,2.0,32.6
2015-06-07 01:44:00,0.0,1.88234,0.00050,401.211,0.061,0.9446,0.0128,140.000,45.000,32182.01653,1.90033,405.911,38.539,45.066,45.000,0.00,0.10,-272.70,-272.77,-5,659,-12,29.0,17.7,2.0,28.6,18.5,2.4,5.73,1.67,2.0,32.6
2015-06-07 01:45:00,0.0,1.88283,0.00030,401.293,0.053,0.9295,0.0104,139.998,45.000,32171.98357,1.90059,405.915,38.549,45.066,45.000,0.00,0.10,-272.71,-272.77,-4,659,-12,29.0,17.4,1.8,28.7,18.6,2.4,5.73,1.67,2.0,32.6
2015-06-07 01:46:00,0.0,1.88289,0.00039,401.291,0.055,0.9216,0.0153,139.998,45.000,32166.12324,1.90047,405.869,38.562,45.066,45.000,0.00,0.10,-272.71,-272.77,-4,659,-12,29.0,17.7,2.0,28.7,18.6,2.4,5.73,1.69,2.0,32.6
2015-06-07 01:47:00,0.0,1.88255,0.00054,401.138,0.079,0.9409,0.0259,139.999,45.000,32162.12482,1.90051,405.821,38.565,45.066,45.000,0.00,0.10,-272.70,-272.77,-4,659,-12,29.0,17.5,1.8,28.6,18.6,2.4,5.73,1.71,2.0,32.6